Time,TemperatureF,DewpointF,PressureIn,WindDirection,WindDirectionDegrees,WindSpeedMPH,WindSpeedGustMPH,Humidity,HourlyPrecipIn,Conditions,Clouds,dailyrainin,SolarRadiationWatts/m^2,SoftwareType,DateUTC
2013-02-16 00:02:00,15.0,7.0,-100.00,SSW,213,2.0,4.0,70,-99.99,,,-99.99,0.000000,,2013-02-16 07:02:00,
2013-02-16 00:42:00,14.0,5.0,-100.00,SSW,197,1.0,6.0,68,-99.99,,,0.00,0.000000,,2013-02-16 07:42:00,
2013-02-16 00:53:00,14.0,5.0,-100.00,SSW,197,1.0,6.0,68,-99.99,,,0.00,0.000000,,2013-02-16 07:53:00,
2013-02-16 01:01:00,14.0,5.0,-100.00,SSW,197,1.0,6.0,68,-99.99,,,0.00,0.000000,,2013-02-16 08:01:00,
2013-02-16 01:42:00,13.0,6.0,-100.00,WSW,245,4.0,6.0,72,-99.99,,,0.00,0.000000,,2013-02-16 08:42:00,
2013-02-16 01:52:00,13.0,6.0,-100.00,WSW,245,4.0,6.0,72,-99.99,,,0.00,0.000000,,2013-02-16 08:52:00,
2013-02-16 02:01:00,13.0,6.0,-100.00,WSW,245,4.0,6.0,72,-99.99,,,0.00,0.000000,,2013-02-16 09:01:00,
2013-02-16 02:42:00,10.0,3.0,-100.00,SW,233,2.0,6.0,74,0.00,,,0.00,0.000000,,2013-02-16 09:42:00,
2013-02-16 02:52:00,10.0,3.0,-100.00,SW,233,2.0,6.0,74,0.00,,,0.00,0.000000,,2013-02-16 09:52:00,
2013-02-16 03:01:00,10.0,3.0,-100.00,SW,233,2.0,6.0,74,0.00,,,0.00,0.000000,,2013-02-16 10:01:00,
2013-02-16 03:42:00,10.0,3.0,-100.00,SW,216,2.0,4.0,74,-99.99,,,0.00,0.000000,,2013-02-16 10:42:00,
2013-02-16 03:52:00,10.0,3.0,-100.00,SW,216,2.0,4.0,74,-99.99,,,0.00,0.000000,,2013-02-16 10:52:00,
2013-02-16 04:02:00,10.0,3.0,-100.00,SW,216,2.0,4.0,74,-99.99,,,0.00,0.000000,,2013-02-16 11:02:00,
2013-02-16 04:42:00,9.0,3.0,-100.00,SSW,205,0.0,4.0,76,-99.99,,,0.00,0.000000,,2013-02-16 11:42:00,
2013-02-16 04:52:00,9.0,3.0,-100.00,SSW,205,0.0,4.0,76,-99.99,,,0.00,0.000000,,2013-02-16 11:52:00,
2013-02-16 05:01:00,9.0,3.0,-100.00,SSW,205,0.0,4.0,76,-99.99,,,0.00,0.000000,,2013-02-16 12:01:00,
2013-02-16 05:42:00,8.0,3.0,-100.00,ENE,78,0.0,4.0,80,-99.99,,,0.00,0.000000,,2013-02-16 12:42:00,
2013-02-16 05:52:00,8.0,3.0,-100.00,ENE,78,0.0,4.0,80,-99.99,,,0.00,0.000000,,2013-02-16 12:52:00,
2013-02-16 06:01:00,8.0,3.0,-100.00,ENE,78,0.0,4.0,80,-99.99,,,0.00,0.000000,,2013-02-16 13:01:00,
2013-02-16 07:42:00,9.0,3.0,-100.00,NNE,28,1.0,5.0,77,-99.99,,,0.00,1.000000,,2013-02-16 14:42:00,
2013-02-16 07:52:00,9.0,3.0,-100.00,NNE,28,1.0,5.0,77,-99.99,,,0.00,1.000000,,2013-02-16 14:52:00,
2013-02-16 08:01:00,9.0,3.0,-100.00,NNE,28,1.0,5.0,77,-99.99,,,0.00,1.000000,,2013-02-16 15:01:00,
2013-02-16 08:11:00,9.0,3.0,-100.00,NNE,28,1.0,5.0,77,-99.99,,,0.00,1.000000,,2013-02-16 15:11:00,
2013-02-16 08:42:00,19.0,10.0,-100.00,ESE,106,2.0,3.0,66,-99.99,,,0.00,98.000000,,2013-02-16 15:42:00,
2013-02-16 08:52:00,19.0,10.0,-100.00,ESE,106,2.0,3.0,66,-99.99,,,0.00,98.000000,,2013-02-16 15:52:00,
2013-02-16 09:01:00,19.0,10.0,-100.00,ESE,106,2.0,3.0,66,-99.99,,,0.00,98.000000,,2013-02-16 16:01:00,
2013-02-16 09:11:00,19.0,10.0,-100.00,ESE,106,2.0,3.0,66,-99.99,,,0.00,98.000000,,2013-02-16 16:11:00,
2013-02-16 09:42:00,35.0,18.0,-100.00,WSW,237,2.0,3.0,50,0.00,,,0.00,311.000000,,2013-02-16 16:42:00,
2013-02-16 09:52:00,35.0,18.0,-100.00,WSW,237,2.0,3.0,50,0.00,,,0.00,311.000000,,2013-02-16 16:52:00,
2013-02-16 10:01:00,35.0,18.0,-100.00,WSW,237,2.0,3.0,50,0.00,,,0.00,311.000000,,2013-02-16 17:01:00,
2013-02-16 10:11:00,35.0,18.0,-100.00,WSW,237,2.0,3.0,50,0.00,,,0.00,311.000000,,2013-02-16 17:11:00,
2013-02-16 10:42:00,49.0,7.0,-100.00,SE,131,4.0,7.0,18,0.00,,,0.00,507.000000,,2013-02-16 17:42:00,
2013-02-16 10:52:00,49.0,7.0,-100.00,SE,131,4.0,7.0,18,0.00,,,0.00,507.000000,,2013-02-16 17:52:00,
2013-02-16 11:01:00,49.0,7.0,-100.00,SE,131,4.0,7.0,18,0.00,,,0.00,507.000000,,2013-02-16 18:01:00,
2013-02-16 11:11:00,49.0,7.0,-100.00,SE,131,4.0,7.0,18,0.00,,,0.00,507.000000,,2013-02-16 18:11:00,
2013-02-16 11:42:00,54.0,3.0,-100.00,South,177,4.0,7.0,12,0.00,,,0.00,660.000000,,2013-02-16 18:42:00,
2013-02-16 11:52:00,54.0,3.0,-100.00,South,177,4.0,7.0,12,0.00,,,0.00,660.000000,,2013-02-16 18:52:00,
2013-02-16 12:02:00,54.0,3.0,-100.00,South,177,4.0,7.0,12,0.00,,,0.00,660.000000,,2013-02-16 19:02:00,
2013-02-16 12:11:00,54.0,3.0,-100.00,South,177,4.0,7.0,12,0.00,,,0.00,660.000000,,2013-02-16 19:11:00,
2013-02-16 12:42:00,55.0,5.0,-100.00,SE,134,7.0,12.0,13,0.00,,,0.00,750.000000,,2013-02-16 19:42:00,
2013-02-16 12:52:00,55.0,5.0,-100.00,SE,134,7.0,12.0,13,0.00,,,0.00,750.000000,,2013-02-16 19:52:00,
2013-02-16 13:01:00,55.0,5.0,-100.00,SE,134,7.0,12.0,13,0.00,,,0.00,750.000000,,2013-02-16 20:01:00,
2013-02-16 13:11:00,55.0,5.0,-100.00,SE,134,7.0,12.0,13,0.00,,,0.00,750.000000,,2013-02-16 20:11:00,
2013-02-16 13:42:00,57.0,5.0,-100.00,SE,143,6.0,13.0,12,0.00,,,0.00,775.000000,,2013-02-16 20:42:00,
2013-02-16 13:52:00,57.0,5.0,-100.00,SE,143,6.0,13.0,12,0.00,,,0.00,775.000000,,2013-02-16 20:52:00,
2013-02-16 14:02:00,57.0,5.0,-100.00,SE,143,6.0,13.0,12,0.00,,,0.00,775.000000,,2013-02-16 21:02:00,
2013-02-16 14:11:00,57.0,5.0,-100.00,SE,143,6.0,13.0,12,0.00,,,0.00,775.000000,,2013-02-16 21:11:00,
2013-02-16 14:42:00,58.0,2.0,-100.00,South,169,7.0,13.0,10,0.00,,,0.00,734.000000,,2013-02-16 21:42:00,
2013-02-16 14:52:00,58.0,2.0,-100.00,South,169,7.0,13.0,10,0.00,,,0.00,734.000000,,2013-02-16 21:52:00,
2013-02-16 15:01:00,58.0,2.0,-100.00,South,169,7.0,13.0,10,0.00,,,0.00,734.000000,,2013-02-16 22:01:00,
2013-02-16 15:11:00,58.0,2.0,-100.00,South,169,7.0,13.0,10,0.00,,,0.00,734.000000,,2013-02-16 22:11:00,
2013-02-16 15:42:00,58.0,2.0,-100.00,SE,126,7.0,11.0,10,0.00,,,0.00,607.000000,,2013-02-16 22:42:00,
2013-02-16 15:52:00,58.0,2.0,-100.00,SE,126,7.0,11.0,10,0.00,,,0.00,607.000000,,2013-02-16 22:52:00,
2013-02-16 16:02:00,58.0,2.0,-100.00,SE,126,7.0,11.0,10,0.00,,,0.00,607.000000,,2013-02-16 23:02:00,
2013-02-16 16:11:00,58.0,2.0,-100.00,SE,126,7.0,11.0,10,0.00,,,0.00,607.000000,,2013-02-16 23:11:00,
2013-02-16 16:42:00,57.0,5.0,-100.00,ESE,123,6.0,11.0,12,0.00,,,0.00,469.000000,,2013-02-16 23:42:00,
2013-02-16 16:52:00,57.0,5.0,-100.00,ESE,123,6.0,11.0,12,0.00,,,0.00,469.000000,,2013-02-16 23:52:00,
2013-02-16 17:02:00,57.0,5.0,-100.00,ESE,123,6.0,11.0,12,0.00,,,0.00,469.000000,,2013-02-17 00:02:00,
2013-02-16 17:11:00,57.0,5.0,-100.00,ESE,123,6.0,11.0,12,0.00,,,0.00,469.000000,,2013-02-17 00:11:00,
2013-02-16 17:32:00,55.0,5.0,-100.00,SE,131,7.0,11.0,13,0.00,,,0.00,278.000000,,2013-02-17 00:32:00,
2013-02-16 17:42:00,55.0,5.0,-100.00,SE,131,7.0,11.0,13,0.00,,,0.00,278.000000,,2013-02-17 00:42:00,
2013-02-16 17:52:00,55.0,5.0,-100.00,SE,131,7.0,11.0,13,0.00,,,0.00,278.000000,,2013-02-17 00:52:00,
2013-02-16 18:01:00,55.0,5.0,-100.00,SE,131,7.0,11.0,13,0.00,,,0.00,278.000000,,2013-02-17 01:01:00,
2013-02-16 18:11:00,55.0,5.0,-100.00,SE,131,7.0,11.0,13,0.00,,,0.00,278.000000,,2013-02-17 01:11:00,
2013-02-16 18:42:00,45.0,6.0,-100.00,SE,137,4.0,9.0,20,0.00,,,0.00,60.000000,,2013-02-17 01:42:00,
2013-02-16 18:52:00,45.0,6.0,-100.00,SE,137,4.0,9.0,20,0.00,,,0.00,60.000000,,2013-02-17 01:52:00,
2013-02-16 19:01:00,45.0,6.0,-100.00,SE,137,4.0,9.0,20,0.00,,,0.00,60.000000,,2013-02-17 02:01:00,
2013-02-16 19:11:00,45.0,6.0,-100.00,SE,137,4.0,9.0,20,0.00,,,0.00,60.000000,,2013-02-17 02:11:00,
2013-02-16 19:42:00,29.0,18.0,-100.00,NE,38,0.0,4.0,62,0.00,,,0.00,0.000000,,2013-02-17 02:42:00,
2013-02-16 19:52:00,29.0,18.0,-100.00,NE,38,0.0,4.0,62,0.00,,,0.00,0.000000,,2013-02-17 02:52:00,
2013-02-16 20:01:00,29.0,18.0,-100.00,NE,38,0.0,4.0,62,0.00,,,0.00,0.000000,,2013-02-17 03:01:00,
2013-02-16 20:42:00,24.0,16.0,-100.00,SSW,210,1.0,3.0,72,-99.99,,,0.00,0.000000,,2013-02-17 03:42:00,
2013-02-16 20:52:00,24.0,16.0,-100.00,SSW,210,1.0,3.0,72,-99.99,,,0.00,0.000000,,2013-02-17 03:52:00,
2013-02-16 21:01:00,24.0,16.0,-100.00,SSW,210,1.0,3.0,72,-99.99,,,0.00,0.000000,,2013-02-17 04:01:00,
2013-02-16 21:42:00,22.0,18.0,-100.00,NE,56,1.0,2.0,85,-99.99,,,0.00,0.000000,,2013-02-17 04:42:00,
2013-02-16 21:52:00,22.0,18.0,-100.00,NE,56,1.0,2.0,85,-99.99,,,0.00,0.000000,,2013-02-17 04:52:00,
2013-02-16 22:01:00,22.0,18.0,-100.00,NE,56,1.0,2.0,85,-99.99,,,0.00,0.000000,,2013-02-17 05:01:00,
2013-02-16 22:42:00,21.0,14.0,-100.00,South,190,3.0,5.0,74,-99.99,,,0.00,0.000000,,2013-02-17 05:42:00,
2013-02-16 22:52:00,21.0,14.0,-100.00,South,190,3.0,5.0,74,-99.99,,,0.00,0.000000,,2013-02-17 05:52:00,
2013-02-16 23:02:00,21.0,14.0,-100.00,South,190,3.0,5.0,74,-99.99,,,0.00,0.000000,,2013-02-17 06:02:00,
2013-02-16 23:32:00,20.0,16.0,-100.00,NNE,26,0.0,2.0,85,-99.99,,,0.00,0.000000,,2013-02-17 06:32:00,
2013-02-16 23:42:00,20.0,16.0,-100.00,NNE,26,0.0,2.0,85,-99.99,,,0.00,0.000000,,2013-02-17 06:42:00,
2013-02-16 23:52:00,20.0,16.0,-100.00,NNE,26,0.0,2.0,85,-99.99,,,0.00,0.000000,,2013-02-17 06:52:00,